Regional Weather Roundup
Issued by NWS Midland/Odessa, TX

Skip options and go directly to product.
Home | Oldest Version | Previous Version | Current Version | All | Text Only | Save Text | Print | Product List | Glossary Off

Skip product version selection by date and time.   

010
ASUS44 KMAF 290110
RWRMAF
MIDLAND AREA WEATHER ROUNDUP
NATIONAL WEATHER SERVICE MIDLAND TX
800 PM CDT SAT MAR 28 2015

...IN SOUTHWEST TEXAS AND SOUTHEAST NEW MEXICO...

CITY           SKY/WX    TMP DP  RH WIND       PRES   REMARKS
ALPINE         CLEAR     75  23  14 W8        30.15S
ANDREWS        FAIR      79  28  15 NW3       29.98S
ARTESIA        CLEAR     82  27  13 CALM      29.99S
BIG SPRING     CLEAR     81  36  19 S9        29.97R
CARLSBAD       CLEAR     80  33  18 S7        29.97S
DRYDEN           N/A     81  39  22 SE9       29.97R
FORT STOCKTON  CLEAR     80  25  13 NW8       30.00R
GUAD PASS      CLEAR     74  13   9 W20       30.15S
HOBBS          CLEAR     77  23  13 NW5       30.02R
MARFA          CLEAR     73  19  13 SW8       30.15S
MIDLAND AIRPK  CLEAR     81  31  16 SW7       29.96S
MIDLAND INTL   CLEAR     80  34  19 SW7       29.96R
ODESSA         CLEAR     81  31  16 W5        29.98R
PECOS          CLEAR     83  33  17 CALM      29.95S
PRESIDIO       FAIR      84  32  15 SE5       30.01S
SEMINOLE       CLEAR     78  28  16 W5        29.99S
SNYDER         PTCLDY    83  34  16 NW5       29.94R
WINK           CLEAR     81  31  16 SW7       29.95S
$$
...OTHER STATIONS IN TEXAS...

CITY           SKY/WX    TMP DP  RH WIND       PRES   REMARKS
ABILENE        CLEAR     79  39  23 S12       29.92S
AMARILLO       CLEAR     74  24  15 S6        29.99S
AUSTIN         CLEAR     70  46  42 S9        30.02S
BROWNSVILLE    CLEAR     69  60  73 S14       30.11R
CORPUS CHRISTI CLEAR     69  55  60 SE21      30.08R
DALLAS FTW     PTCLDY    76  48  37 SE15      29.95S
DEL RIO        CLEAR     82  35  18 SE10      29.96R
EL PASO        FAIR      85   6   5 W8        30.05S
HOUSTON INT    CLEAR     74  40  29 S7        30.08R
LUBBOCK        PTCLDY    76  29  17 E8        29.98R
SAN ANGELO     CLEAR     79  36  21 S12       29.95S
SAN ANTONIO    CLEAR     74  45  35 SE12      30.04S
WACO           CLEAR     71  45  39 S13       29.97S
WICHITA FALLS  NOT AVBL
$$
...OTHER LOCATIONS IN NEW MEXICO...

CITY           SKY/WX    TMP DP  RH WIND       PRES   REMARKS
ALAMAGORDO     CLEAR     77  19  11 S3        30.05S
ALBUQUERQUE    CLEAR     78  14   9 W9        30.08S
CANNON AFB     CLEAR     76  26  15 SW6       30.02S
CLOVIS         CLEAR     75  25  15 S6        30.02S
HOLLOMAN AFB   CLEAR     82  10   6 S1        30.03S
ROSWELL        CLEAR     81  32  17 CALM      29.99R
RUIDOSO        CLEAR     66  14  13 W7        30.22S
SANTA FE       CLEAR     71   7   8 NW13      30.12R
TRUTH OR CONSE CLEAR     82  11   7 S7        30.05S
TUCUMCARI      CLEAR     75  21  13 SE8       29.97F
$$

USA.gov is the U.S. government's official web portal to all federal, state and local government web resources and services.